Saint Bonnet de Bellac- Haute Vienne - France
Donnes mto: vendredi, 07/10/2011
Date Horaire Temp. E. Hum. E. P.atmo. Pluie Vent Direction Direction Ensoleilleme Solaire P. de rose Temp au vent Rafales
07/10/2011 00:00 12,1 C 84 % 1020,7 hPa 0,0 mm 2,9 km/h (1 Bft) O-SO 247 0 min 0 W/m 9,5 C 12,1 C 2,9 km/h (1 Bft)
07/10/2011 00:05 12,1 C 84 % 1020,8 hPa 0,0 mm 1,1 km/h (1 Bft) O-SO 247 0 min 0 W/m 9,5 C 12,1 C 1,1 km/h (1 Bft)
07/10/2011 00:10 12,1 C 84 % 1021,0 hPa 0,0 mm 3,6 km/h (1 Bft) NO 315 0 min 0 W/m 9,5 C 12,1 C 11,2 km/h (2 Bft)
07/10/2011 00:15 12,1 C 84 % 1020,8 hPa 0,0 mm 0,4 km/h (0 Bft) O-SO 247 0 min 0 W/m 9,5 C 12,1 C 0,4 km/h (0 Bft)
07/10/2011 00:20 12,1 C 83 % 1020,8 hPa 0,0 mm 2,2 km/h (1 Bft) O-SO 247 0 min 0 W/m 9,3 C 12,1 C 7,2 km/h (2 Bft)
07/10/2011 00:25 12,0 C 83 % 1020,9 hPa 0,0 mm 0,0 km/h (0 Bft) O-SO 247 0 min 0 W/m 9,2 C 12,0 C 0,0 km/h (0 Bft)
07/10/2011 00:30 12,0 C 83 % 1020,9 hPa 0,0 mm 1,4 km/h (1 Bft) SO 225 0 min 0 W/m 9,2 C 12,0 C 3,2 km/h (1 Bft)
07/10/2011 00:35 12,0 C 83 % 1020,9 hPa 0,0 mm 4,0 km/h (1 Bft) O-SO 247 0 min 0 W/m 9,2 C 12,0 C 4,0 km/h (1 Bft)
07/10/2011 00:40 11,9 C 83 % 1021,0 hPa 0,0 mm 2,5 km/h (1 Bft) O 270 0 min 0 W/m 9,1 C 11,9 C 3,2 km/h (1 Bft)
07/10/2011 00:45 11,9 C 83 % 1020,9 hPa 0,0 mm 0,0 km/h (0 Bft) O-NO 292 0 min 0 W/m 9,1 C 11,9 C 1,4 km/h (1 Bft)
07/10/2011 00:50 11,9 C 83 % 1021,0 hPa 0,0 mm 0,4 km/h (0 Bft) N-NO 337 0 min 0 W/m 9,1 C 11,9 C 0,4 km/h (0 Bft)
07/10/2011 00:55 11,8 C 83 % 1021,1 hPa 0,0 mm 0,0 km/h (0 Bft) S-SO 202 0 min 0 W/m 9,0 C 11,8 C 0,0 km/h (0 Bft)
07/10/2011 01:00 11,8 C 83 % 1021,1 hPa 0,0 mm 0,0 km/h (0 Bft) N 360 0 min 0 W/m 9,0 C 11,8 C 0,0 km/h (0 Bft)
07/10/2011 01:05 11,8 C 83 % 1021,2 hPa 0,0 mm 4,0 km/h (1 Bft) O-NO 292 0 min 0 W/m 9,0 C 11,8 C 8,6 km/h (2 Bft)
07/10/2011 01:10 11,7 C 83 % 1021,2 hPa 0,0 mm 0,4 km/h (0 Bft) O-NO 292 0 min 0 W/m 8,9 C 11,7 C 0,4 km/h (0 Bft)
07/10/2011 01:15 11,6 C 83 % 1021,3 hPa 0,0 mm 0,0 km/h (0 Bft) O-SO 247 0 min 0 W/m 8,8 C 11,6 C 0,0 km/h (0 Bft)
07/10/2011 01:20 11,6 C 83 % 1021,3 hPa 0,0 mm 1,8 km/h (1 Bft) O-NO 292 0 min 0 W/m 8,8 C 11,6 C 1,8 km/h (1 Bft)
07/10/2011 01:25 11,6 C 83 % 1021,3 hPa 0,0 mm 0,0 km/h (0 Bft) NE 45 0 min 0 W/m 8,8 C 11,6 C 0,0 km/h (0 Bft)
07/10/2011 01:30 11,6 C 84 % 1021,4 hPa 0,0 mm 3,2 km/h (1 Bft) S-SO 202 0 min 0 W/m 9,0 C 11,6 C 9,7 km/h (2 Bft)
07/10/2011 01:35 11,6 C 84 % 1021,4 hPa 0,0 mm 0,0 km/h (0 Bft) O-SO 247 0 min 0 W/m 9,0 C 11,6 C 0,0 km/h (0 Bft)
07/10/2011 01:40 11,5 C 84 % 1021,4 hPa 0,0 mm 1,1 km/h (1 Bft) O-NO 292 0 min 0 W/m 8,9 C 11,5 C 4,0 km/h (1 Bft)
07/10/2011 01:45 11,5 C 84 % 1021,3 hPa 0,0 mm 0,0 km/h (0 Bft) O-SO 247 0 min 0 W/m 8,9 C 11,5 C 0,0 km/h (0 Bft)
07/10/2011 01:50 11,4 C 83 % 1021,4 hPa 0,0 mm 0,0 km/h (0 Bft) O-NO 292 0 min 0 W/m 8,6 C 11,4 C 0,0 km/h (0 Bft)
07/10/2011 01:55 11,3 C 84 % 1021,4 hPa 0,0 mm 0,4 km/h (0 Bft) SO 225 0 min 0 W/m 8,7 C 11,3 C 3,6 km/h (1 Bft)
07/10/2011 02:00 11,2 C 84 % 1021,4 hPa 0,0 mm 0,0 km/h (0 Bft) O-NO 292 0 min 0 W/m 8,6 C 11,2 C 0,0 km/h (0 Bft)
07/10/2011 02:05 11,1 C 84 % 1021,5 hPa 0,0 mm 0,0 km/h (0 Bft) S-SO 202 0 min 0 W/m 8,5 C 11,1 C 0,0 km/h (0 Bft)
07/10/2011 02:10 10,9 C 84 % 1021,6 hPa 0,0 mm 0,0 km/h (0 Bft) NO 315 0 min 0 W/m 8,3 C 10,9 C 0,0 km/h (0 Bft)
07/10/2011 02:15 10,9 C 84 % 1021,6 hPa 0,0 mm 0,0 km/h (0 Bft) SO 225 0 min 0 W/m 8,3 C 10,9 C 0,0 km/h (0 Bft)
07/10/2011 02:20 10,9 C 85 % 1021,8 hPa 0,0 mm 1,4 km/h (1 Bft) N-NO 337 0 min 0 W/m 8,5 C 10,9 C 4,7 km/h (1 Bft)
07/10/2011 02:25 10,9 C 85 % 1021,8 hPa 0,0 mm 2,5 km/h (1 Bft) NO 315 0 min 0 W/m 8,5 C 10,9 C 6,5 km/h (2 Bft)
07/10/2011 02:30 10,9 C 85 % 1021,9 hPa 0,0 mm 3,6 km/h (1 Bft) NO 315 0 min 0 W/m 8,5 C 10,9 C 9,4 km/h (2 Bft)
07/10/2011 02:35 10,9 C 85 % 1021,9 hPa 0,0 mm 5,0 km/h (1 Bft) N-NE 22 0 min 0 W/m 8,5 C 10,9 C 7,2 km/h (2 Bft)
07/10/2011 02:40 10,9 C 84 % 1021,9 hPa 0,0 mm 0,4 km/h (0 Bft) O 270 0 min 0 W/m 8,3 C 10,9 C 2,9 km/h (1 Bft)
07/10/2011 02:45 10,9 C 84 % 1021,9 hPa 0,0 mm 4,3 km/h (1 Bft) N-NO 337 0 min 0 W/m 8,3 C 10,9 C 7,6 km/h (2 Bft)
07/10/2011 02:50 10,9 C 83 % 1022,1 hPa 0,0 mm 0,4 km/h (0 Bft) O-NO 292 0 min 0 W/m 8,1 C 10,9 C 0,4 km/h (0 Bft)
07/10/2011 02:55 10,8 C 83 % 1022,0 hPa 0,0 mm 0,4 km/h (0 Bft) N-NO 337 0 min 0 W/m 8,0 C 10,8 C 3,6 km/h (1 Bft)
07/10/2011 03:02 10,8 C 83 % 1022,1 hPa 0,0 mm 0,4 km/h (0 Bft) O-SO 247 0 min 0 W/m 8,0 C 10,8 C 4,0 km/h (1 Bft)
07/10/2011 03:05 10,6 C 82 % 1022,1 hPa 0,0 mm 3,6 km/h (1 Bft) N-NO 337 0 min 0 W/m 7,7 C 10,6 C 7,2 km/h (2 Bft)
07/10/2011 03:10 10,5 C 82 % 1022,1 hPa 0,0 mm 1,4 km/h (1 Bft) S-SO 202 0 min 0 W/m 7,6 C 10,5 C 3,6 km/h (1 Bft)
07/10/2011 03:15 10,4 C 81 % 1022,1 hPa 0,0 mm 0,0 km/h (0 Bft) O-SO 247 0 min 0 W/m 7,3 C 10,4 C 0,0 km/h (0 Bft)
07/10/2011 03:20 10,3 C 81 % 1022,0 hPa 0,0 mm 3,2 km/h (1 Bft) O-NO 292 0 min 0 W/m 7,2 C 10,3 C 7,6 km/h (2 Bft)
07/10/2011 03:25 10,1 C 81 % 1022,0 hPa 0,0 mm 0,0 km/h (0 Bft) O-SO 247 0 min 0 W/m 7,0 C 10,1 C 0,0 km/h (0 Bft)
07/10/2011 03:30 9,9 C 81 % 1022,0 hPa 0,0 mm 0,0 km/h (0 Bft) O 270 0 min 0 W/m 6,8 C 9,9 C 0,0 km/h (0 Bft)
07/10/2011 03:35 9,8 C 81 % 1021,9 hPa 0,0 mm 0,0 km/h (0 Bft) O 270 0 min 0 W/m 6,7 C 9,8 C 0,0 km/h (0 Bft)
07/10/2011 03:40 9,6 C 81 % 1021,9 hPa 0,0 mm 0,4 km/h (0 Bft) O-SO 247 0 min 0 W/m 6,5 C 9,6 C 4,0 km/h (1 Bft)
07/10/2011 03:45 9,4 C 81 % 1022,0 hPa 0,0 mm 0,0 km/h (0 Bft) O 270 0 min 0 W/m 6,3 C 9,4 C 0,0 km/h (0 Bft)
07/10/2011 03:50 9,3 C 81 % 1022,0 hPa 0,0 mm 0,0 km/h (0 Bft) O 270 0 min 0 W/m 6,2 C 9,3 C 0,0 km/h (0 Bft)
07/10/2011 03:55 9,1 C 81 % 1022,0 hPa 0,0 mm 0,7 km/h (0 Bft) O-SO 247 0 min 0 W/m 6,0 C 9,1 C 0,7 km/h (0 Bft)
07/10/2011 04:00 9,0 C 81 % 1022,1 hPa 0,0 mm 2,2 km/h (1 Bft) O-SO 247 0 min 0 W/m 5,9 C 9,0 C 2,2 km/h (1 Bft)
07/10/2011 04:05 8,9 C 82 % 1022,0 hPa 0,0 mm 1,8 km/h (1 Bft) O-SO 247 0 min 0 W/m 6,0 C 8,9 C 1,8 km/h (1 Bft)
07/10/2011 04:10 8,8 C 82 % 1021,9 hPa 0,0 mm 0,0 km/h (0 Bft) O-SO 247 0 min 0 W/m 5,9 C 8,8 C 0,0 km/h (0 Bft)
07/10/2011 04:15 8,6 C 83 % 1021,6 hPa 0,0 mm 0,0 km/h (0 Bft) O 270 0 min 0 W/m 5,9 C 8,6 C 0,0 km/h (0 Bft)
07/10/2011 04:20 8,6 C 83 % 1021,7 hPa 0,0 mm 1,1 km/h (1 Bft) O-NO 292 0 min 0 W/m 5,9 C 8,6 C 4,0 km/h (1 Bft)
07/10/2011 04:25 8,5 C 83 % 1021,7 hPa 0,0 mm 0,0 km/h (0 Bft) O-SO 247 0 min 0 W/m 5,8 C 8,5 C 0,0 km/h (0 Bft)
07/10/2011 04:30 8,4 C 84 % 1021,7 hPa 0,0 mm 1,1 km/h (1 Bft) O 270 0 min 0 W/m 5,9 C 8,4 C 7,2 km/h (2 Bft)
07/10/2011 04:35 8,4 C 84 % 1021,8 hPa 0,0 mm 0,0 km/h (0 Bft) O-NO 292 0 min 0 W/m 5,9 C 8,4 C 4,3 km/h (1 Bft)
07/10/2011 04:40 8,3 C 84 % 1021,8 hPa 0,0 mm 0,7 km/h (0 Bft) O 270 0 min 0 W/m 5,8 C 8,3 C 4,0 km/h (1 Bft)
07/10/2011 04:45 8,2 C 84 % 1021,8 hPa 0,0 mm 0,7 km/h (0 Bft) S-SO 202 0 min 0 W/m 5,7 C 8,2 C 0,7 km/h (0 Bft)
07/10/2011 04:50 8,1 C 84 % 1021,9 hPa 0,0 mm 0,0 km/h (0 Bft) O-SO 247 0 min 0 W/m 5,6 C 8,1 C 0,0 km/h (0 Bft)
07/10/2011 04:55 8,0 C 84 % 1021,9 hPa 0,0 mm 0,0 km/h (0 Bft) O-SO 247 0 min 0 W/m 5,5 C 8,0 C 0,0 km/h (0 Bft)
07/10/2011 05:00 7,9 C 84 % 1021,9 hPa 0,0 mm 0,0 km/h (0 Bft) O 270 0 min 0 W/m 5,4 C 7,9 C 0,0 km/h (0 Bft)
07/10/2011 05:05 7,8 C 84 % 1021,9 hPa 0,0 mm 0,0 km/h (0 Bft) O 270 0 min 0 W/m 5,3 C 7,8 C 0,0 km/h (0 Bft)
07/10/2011 05:10 7,8 C 84 % 1022,0 hPa 0,0 mm 0,0 km/h (0 Bft) O-SO 247 0 min 0 W/m 5,3 C 7,8 C 4,0 km/h (1 Bft)
07/10/2011 05:15 7,7 C 85 % 1022,1 hPa 0,0 mm 0,7 km/h (0 Bft) O-SO 247 0 min 0 W/m 5,3 C 7,7 C 4,3 km/h (1 Bft)
07/10/2011 05:20 7,6 C 85 % 1022,0 hPa 0,0 mm 0,0 km/h (0 Bft) O-SO 247 0 min 0 W/m 5,2 C 7,6 C 0,0 km/h (0 Bft)
07/10/2011 05:25 7,5 C 85 % 1022,0 hPa 0,0 mm 0,0 km/h (0 Bft) O-NO 292 0 min 0 W/m 5,1 C 7,5 C 0,0 km/h (0 Bft)
07/10/2011 05:30 7,4 C 85 % 1022,0 hPa 0,0 mm 0,4 km/h (0 Bft) O-SO 247 0 min 0 W/m 5,0 C 7,4 C 0,4 km/h (0 Bft)
07/10/2011 05:35 7,3 C 85 % 1022,0 hPa 0,0 mm 1,4 km/h (1 Bft) O-NO 292 0 min 0 W/m 4,9 C 7,3 C 7,6 km/h (2 Bft)
07/10/2011 05:40 7,3 C 85 % 1022,1 hPa 0,0 mm 0,4 km/h (0 Bft) SO 225 0 min 0 W/m 4,9 C 7,3 C 0,4 km/h (0 Bft)
07/10/2011 05:45 7,2 C 85 % 1022,2 hPa 0,0 mm 0,7 km/h (0 Bft) O-SO 247 0 min 0 W/m 4,9 C 7,2 C 4,3 km/h (1 Bft)
07/10/2011 05:50 7,2 C 85 % 1022,3 hPa 0,0 mm 0,0 km/h (0 Bft) S-SO 202 0 min 0 W/m 4,9 C 7,2 C 0,0 km/h (0 Bft)
07/10/2011 05:55 7,1 C 86 % 1022,3 hPa 0,0 mm 2,9 km/h (1 Bft) NO 315 0 min 0 W/m 4,9 C 7,1 C 6,5 km/h (2 Bft)
07/10/2011 06:00 7,1 C 86 % 1022,3 hPa 0,0 mm 1,1 km/h (1 Bft) NO 315 0 min 0 W/m 4,9 C 7,1 C 5,8 km/h (2 Bft)
07/10/2011 06:05 7,0 C 86 % 1022,4 hPa 0,0 mm 0,0 km/h (0 Bft) O 270 0 min 0 W/m 4,8 C 7,0 C 0,0 km/h (0 Bft)
07/10/2011 06:10 6,9 C 86 % 1022,3 hPa 0,0 mm 0,0 km/h (0 Bft) NO 315 0 min 0 W/m 4,7 C 6,9 C 0,0 km/h (0 Bft)
07/10/2011 06:15 6,8 C 86 % 1022,4 hPa 0,0 mm 0,7 km/h (0 Bft) N-NO 337 0 min 0 W/m 4,6 C 6,8 C 4,0 km/h (1 Bft)
07/10/2011 06:20 6,6 C 86 % 1022,3 hPa 0,0 mm 0,0 km/h (0 Bft) NO 315 0 min 0 W/m 4,4 C 6,6 C 0,0 km/h (0 Bft)
07/10/2011 06:25 6,5 C 86 % 1022,3 hPa 0,0 mm 0,0 km/h (0 Bft) NO 315 0 min 0 W/m 4,3 C 6,5 C 0,0 km/h (0 Bft)
07/10/2011 06:30 6,4 C 86 % 1022,4 hPa 0,0 mm 0,0 km/h (0 Bft) NO 315 0 min 0 W/m 4,2 C 6,4 C 0,0 km/h (0 Bft)
07/10/2011 06:35 6,3 C 86 % 1022,4 hPa 0,0 mm 0,0 km/h (0 Bft) O-SO 247 0 min 0 W/m 4,1 C 6,3 C 0,0 km/h (0 Bft)
07/10/2011 06:40 6,3 C 86 % 1022,3 hPa 0,0 mm 0,0 km/h (0 Bft) S-SO 202 0 min 0 W/m 4,1 C 6,3 C 0,0 km/h (0 Bft)
07/10/2011 06:45 6,3 C 86 % 1022,3 hPa 0,0 mm 0,0 km/h (0 Bft) S-SO 202 0 min 0 W/m 4,1 C 6,3 C 0,0 km/h (0 Bft)
07/10/2011 06:50 6,2 C 87 % 1022,3 hPa 0,0 mm 0,4 km/h (0 Bft) S-SO 202 0 min 0 W/m 4,2 C 6,2 C 3,6 km/h (1 Bft)
07/10/2011 06:55 6,2 C 87 % 1022,4 hPa 0,0 mm 0,0 km/h (0 Bft) S 180 0 min 0 W/m 4,2 C 6,2 C 0,0 km/h (0 Bft)
07/10/2011 07:00 6,2 C 87 % 1022,4 hPa 0,0 mm 0,0 km/h (0 Bft) O-SO 247 0 min 0 W/m 4,2 C 6,2 C 0,0 km/h (0 Bft)
07/10/2011 07:05 6,1 C 87 % 1022,4 hPa 0,0 mm 0,0 km/h (0 Bft) SO 225 0 min 0 W/m 4,1 C 6,1 C 0,0 km/h (0 Bft)
07/10/2011 07:10 6,1 C 87 % 1022,5 hPa 0,0 mm 0,0 km/h (0 Bft) O-SO 247 0 min 0 W/m 4,1 C 6,1 C 3,2 km/h (1 Bft)
07/10/2011 07:15 6,0 C 87 % 1022,5 hPa 0,0 mm 0,0 km/h (0 Bft) SO 225 0 min 0 W/m 4,0 C 6,0 C 0,0 km/h (0 Bft)
07/10/2011 07:20 6,0 C 88 % 1022,5 hPa 0,0 mm 0,0 km/h (0 Bft) O 270 0 min 0 W/m 4,2 C 6,0 C 0,0 km/h (0 Bft)
07/10/2011 07:25 5,9 C 87 % 1022,6 hPa 0,0 mm 0,0 km/h (0 Bft) O 270 0 min 0 W/m 3,9 C 5,9 C 0,0 km/h (0 Bft)
07/10/2011 07:30 5,9 C 88 % 1022,6 hPa 0,0 mm 0,0 km/h (0 Bft) SO 225 0 min 0 W/m 4,1 C 5,9 C 0,0 km/h (0 Bft)
07/10/2011 07:35 5,9 C 88 % 1022,6 hPa 0,0 mm 0,0 km/h (0 Bft) S-SO 202 0 min 0 W/m 4,1 C 5,9 C 0,0 km/h (0 Bft)
07/10/2011 07:40 5,9 C 88 % 1022,6 hPa 0,0 mm 0,0 km/h (0 Bft) SO 225 0 min 0 W/m 4,1 C 5,9 C 0,0 km/h (0 Bft)
07/10/2011 07:45 5,9 C 88 % 1022,6 hPa 0,0 mm 0,0 km/h (0 Bft) S 180 0 min 0 W/m 4,1 C 5,9 C 0,0 km/h (0 Bft)
07/10/2011 07:50 5,8 C 88 % 1022,6 hPa 0,0 mm 0,0 km/h (0 Bft) S-SO 202 0 min 0 W/m 4,0 C 5,8 C 0,0 km/h (0 Bft)
07/10/2011 07:55 5,9 C 88 % 1022,6 hPa 0,0 mm 0,7 km/h (0 Bft) S-SO 202 0 min 0 W/m 4,1 C 5,9 C 3,6 km/h (1 Bft)
07/10/2011 08:00 5,9 C 89 % 1022,7 hPa 0,0 mm 0,7 km/h (0 Bft) S-SO 202 0 min 0 W/m 4,2 C 5,9 C 3,6 km/h (1 Bft)
07/10/2011 08:05 6,0 C 89 % 1022,7 hPa 0,0 mm 2,2 km/h (1 Bft) SE 135 0 min 0 W/m 4,3 C 6,0 C 4,0 km/h (1 Bft)
07/10/2011 08:10 6,0 C 89 % 1022,8 hPa 0,0 mm 2,5 km/h (1 Bft) SO 225 0 min 0 W/m 4,3 C 6,0 C 4,3 km/h (1 Bft)
07/10/2011 08:15 6,1 C 89 % 1022,7 hPa 0,0 mm 0,0 km/h (0 Bft) S-SO 202 0 min 0 W/m 4,4 C 6,1 C 0,0 km/h (0 Bft)
07/10/2011 08:20 6,0 C 89 % 1022,8 hPa 0,0 mm 0,0 km/h (0 Bft) S-SO 202 0 min 0 W/m 4,3 C 6,0 C 0,0 km/h (0 Bft)
07/10/2011 08:25 5,9 C 89 % 1022,9 hPa 0,0 mm 0,0 km/h (0 Bft) S-SO 202 0 min 0 W/m 4,2 C 5,9 C 0,0 km/h (0 Bft)
07/10/2011 08:30 5,9 C 89 % 1022,9 hPa 0,0 mm 0,0 km/h (0 Bft) O-SO 247 0 min 0 W/m 4,2 C 5,9 C 0,0 km/h (0 Bft)
07/10/2011 08:35 5,9 C 89 % 1023,2 hPa 0,0 mm 0,0 km/h (0 Bft) SO 225 0 min 0 W/m 4,2 C 5,9 C 0,0 km/h (0 Bft)
07/10/2011 08:40 5,9 C 89 % 1023,3 hPa 0,0 mm 0,0 km/h (0 Bft) SO 225 0 min 0 W/m 4,2 C 5,9 C 0,0 km/h (0 Bft)
07/10/2011 08:45 6,0 C 89 % 1023,3 hPa 0,0 mm 0,0 km/h (0 Bft) SO 225 0 min 0 W/m 4,3 C 6,0 C 0,0 km/h (0 Bft)
07/10/2011 08:50 6,0 C 89 % 1023,3 hPa 0,0 mm 0,0 km/h (0 Bft) S-SO 202 0 min 0 W/m 4,3 C 6,0 C 0,0 km/h (0 Bft)
07/10/2011 08:55 6,2 C 89 % 1023,4 hPa 0,0 mm 0,0 km/h (0 Bft) S-SO 202 0 min 0 W/m 4,5 C 6,2 C 0,0 km/h (0 Bft)
07/10/2011 09:00 6,3 C 89 % 1023,4 hPa 0,0 mm 0,0 km/h (0 Bft) S-SE 157 0 min 0 W/m 4,6 C 6,3 C 0,0 km/h (0 Bft)
07/10/2011 09:05 6,5 C 89 % 1023,4 hPa 0,0 mm 0,0 km/h (0 Bft) O-SO 247 0 min 0 W/m 4,8 C 6,5 C 0,0 km/h (0 Bft)
07/10/2011 09:10 6,8 C 89 % 1023,4 hPa 0,0 mm 0,0 km/h (0 Bft) O-SO 247 0 min 0 W/m 5,1 C 6,8 C 0,0 km/h (0 Bft)
07/10/2011 09:15 7,2 C 89 % 1023,5 hPa 0,0 mm 0,0 km/h (0 Bft) O-NO 292 0 min 0 W/m 5,5 C 7,2 C 0,0 km/h (0 Bft)
07/10/2011 09:20 7,6 C 90 % 1023,5 hPa 0,0 mm 0,0 km/h (0 Bft) O-SO 247 0 min 0 W/m 6,1 C 7,6 C 0,0 km/h (0 Bft)
07/10/2011 09:25 7,9 C 89 % 1023,5 hPa 0,0 mm 0,4 km/h (0 Bft) O-SO 247 0 min 0 W/m 6,2 C 7,9 C 3,2 km/h (1 Bft)
07/10/2011 09:30 8,3 C 89 % 1023,7 hPa 0,0 mm 1,8 km/h (1 Bft) O-SO 247 0 min 0 W/m 6,6 C 8,3 C 4,3 km/h (1 Bft)
07/10/2011 09:35 8,6 C 88 % 1023,9 hPa 0,0 mm 0,0 km/h (0 Bft) O 270 0 min 0 W/m 6,7 C 8,6 C 0,0 km/h (0 Bft)
07/10/2011 09:40 9,1 C 87 % 1023,9 hPa 0,0 mm 0,0 km/h (0 Bft) S-SO 202 0 min 0 W/m 7,1 C 9,1 C 1,4 km/h (1 Bft)
07/10/2011 09:45 9,4 C 87 % 1023,9 hPa 0,0 mm 0,0 km/h (0 Bft) O-SO 247 0 min 0 W/m 7,3 C 9,4 C 0,0 km/h (0 Bft)
07/10/2011 09:50 9,8 C 86 % 1023,9 hPa 0,0 mm 0,7 km/h (0 Bft) O-NO 292 0 min 0 W/m 7,6 C 9,8 C 8,6 km/h (2 Bft)
07/10/2011 09:55 10,3 C 85 % 1024,1 hPa 0,0 mm 0,0 km/h (0 Bft) O-NO 292 0 min 0 W/m 7,9 C 10,3 C 0,0 km/h (0 Bft)
07/10/2011 10:00 10,6 C 84 % 1024,0 hPa 0,0 mm 0,0 km/h (0 Bft) N-NE 22 0 min 0 W/m 8,0 C 10,6 C 0,0 km/h (0 Bft)
07/10/2011 10:05 11,1 C 83 % 1024,1 hPa 0,0 mm 0,0 km/h (0 Bft) O-SO 247 0 min 0 W/m 8,3 C 11,1 C 0,0 km/h (0 Bft)
07/10/2011 10:10 11,5 C 81 % 1024,1 hPa 0,0 mm 2,2 km/h (1 Bft) O 270 0 min 0 W/m 8,4 C 11,5 C 2,2 km/h (1 Bft)
07/10/2011 10:15 11,9 C 80 % 1024,2 hPa 0,0 mm 0,0 km/h (0 Bft) O 270 0 min 0 W/m 8,6 C 11,9 C 0,0 km/h (0 Bft)
07/10/2011 10:20 12,3 C 79 % 1024,1 hPa 0,0 mm 7,9 km/h (2 Bft) NO 315 0 min 0 W/m 8,8 C 12,3 C 12,6 km/h (3 Bft)
07/10/2011 10:25 12,8 C 78 % 1024,1 hPa 0,0 mm 0,4 km/h (0 Bft) N-NO 337 0 min 0 W/m 9,1 C 12,8 C 2,9 km/h (1 Bft)
07/10/2011 10:30 13,1 C 77 % 1024,2 hPa 0,0 mm 1,4 km/h (1 Bft) N-NO 337 0 min 0 W/m 9,2 C 13,1 C 8,6 km/h (2 Bft)
07/10/2011 10:35 13,5 C 75 % 1024,2 hPa 0,0 mm 1,4 km/h (1 Bft) N-NO 337 0 min 0 W/m 9,2 C 13,5 C 4,0 km/h (1 Bft)
07/10/2011 10:40 13,5 C 74 % 1024,2 hPa 0,0 mm 4,0 km/h (1 Bft) NO 315 0 min 0 W/m 9,0 C 13,5 C 6,5 km/h (2 Bft)
07/10/2011 10:45 13,5 C 74 % 1024,3 hPa 0,0 mm 1,4 km/h (1 Bft) NO 315 0 min 0 W/m 9,0 C 13,5 C 4,3 km/h (1 Bft)
07/10/2011 10:50 13,4 C 74 % 1024,2 hPa 0,0 mm 0,7 km/h (0 Bft) O-NO 292 0 min 0 W/m 8,9 C 13,4 C 3,2 km/h (1 Bft)
07/10/2011 10:55 13,2 C 74 % 1024,3 hPa 0,0 mm 0,4 km/h (0 Bft) NO 315 0 min 0 W/m 8,7 C 13,2 C 3,2 km/h (1 Bft)
07/10/2011 11:00 13,1 C 74 % 1024,2 hPa 0,0 mm 0,7 km/h (0 Bft) O-SO 247 0 min 0 W/m 8,6 C 13,1 C 6,1 km/h (2 Bft)
07/10/2011 11:05 13,1 C 74 % 1024,3 hPa 0,0 mm 0,0 km/h (0 Bft) N-NO 337 0 min 0 W/m 8,6 C 13,1 C 0,0 km/h (0 Bft)
07/10/2011 11:10 13,1 C 75 % 1024,3 hPa 0,0 mm 0,0 km/h (0 Bft) O 270 0 min 0 W/m 8,8 C 13,1 C 0,0 km/h (0 Bft)
07/10/2011 11:15 13,1 C 74 % 1024,2 hPa 0,0 mm 4,3 km/h (1 Bft) O 270 0 min 0 W/m 8,6 C 13,1 C 12,2 km/h (2 Bft)
07/10/2011 11:20 13,1 C 73 % 1024,2 hPa 0,0 mm 1,8 km/h (1 Bft) N 360 0 min 0 W/m 8,4 C 13,1 C 1,8 km/h (1 Bft)
07/10/2011 11:25 13,3 C 73 % 1024,2 hPa 0,0 mm 1,8 km/h (1 Bft) N-NO 337 0 min 0 W/m 8,6 C 13,3 C 4,3 km/h (1 Bft)
07/10/2011 11:30 13,5 C 73 % 1024,2 hPa 0,0 mm 0,7 km/h (0 Bft) O-SO 247 0 min 0 W/m 8,8 C 13,5 C 4,3 km/h (1 Bft)
07/10/2011 11:35 13,8 C 73 % 1024,2 hPa 0,0 mm 2,9 km/h (1 Bft) N 360 0 min 0 W/m 9,0 C 13,8 C 9,4 km/h (2 Bft)
07/10/2011 11:40 14,1 C 72 % 1024,1 hPa 0,0 mm 0,0 km/h (0 Bft) NO 315 0 min 0 W/m 9,1 C 14,1 C 0,0 km/h (0 Bft)
07/10/2011 11:45 14,3 C 71 % 1024,1 hPa 0,0 mm 0,0 km/h (0 Bft) O 270 0 min 0 W/m 9,1 C 14,3 C 0,0 km/h (0 Bft)
07/10/2011 11:50 14,6 C 70 % 1024,2 hPa 0,0 mm 0,4 km/h (0 Bft) O 270 0 min 0 W/m 9,2 C 14,6 C 2,9 km/h (1 Bft)
07/10/2011 11:55 14,6 C 71 % 1024,1 hPa 0,0 mm 5,0 km/h (1 Bft) N-NO 337 0 min 0 W/m 9,4 C 14,6 C 7,2 km/h (2 Bft)
07/10/2011 12:00 14,7 C 70 % 1024,1 hPa 0,0 mm 6,5 km/h (2 Bft) N-NO 337 0 min 0 W/m 9,3 C 14,7 C 8,3 km/h (2 Bft)
07/10/2011 12:05 14,9 C 70 % 1024,1 hPa 0,0 mm 1,1 km/h (1 Bft) O-SO 247 0 min 0 W/m 9,5 C 14,9 C 1,1 km/h (1 Bft)
07/10/2011 12:10 15,1 C 70 % 1024,1 hPa 0,0 mm 4,3 km/h (1 Bft) S-SO 202 0 min 0 W/m 9,7 C 15,1 C 9,0 km/h (2 Bft)
07/10/2011 12:15 15,3 C 69 % 1024,1 hPa 0,0 mm 3,6 km/h (1 Bft) N-NO 337 0 min 0 W/m 9,6 C 15,3 C 9,0 km/h (2 Bft)
07/10/2011 12:20 15,4 C 68 % 1024,1 hPa 0,0 mm 4,7 km/h (1 Bft) O 270 0 min 0 W/m 9,5 C 15,4 C 6,1 km/h (2 Bft)
07/10/2011 12:25 15,6 C 67 % 1024,2 hPa 0,0 mm 11,9 km/h (2 Bft) NO 315 0 min 0 W/m 9,5 C 15,6 C 16,6 km/h (3 Bft)
07/10/2011 12:30 15,5 C 66 % 1024,2 hPa 0,0 mm 7,6 km/h (2 Bft) N-NO 337 0 min 0 W/m 9,2 C 15,5 C 9,4 km/h (2 Bft)
07/10/2011 12:35 15,4 C 67 % 1024,1 hPa 0,0 mm 1,8 km/h (1 Bft) NO 315 0 min 0 W/m 9,3 C 15,4 C 4,3 km/h (1 Bft)
07/10/2011 12:40 15,5 C 67 % 1024,1 hPa 0,0 mm 0,7 km/h (0 Bft) O 270 0 min 0 W/m 9,4 C 15,5 C 1,8 km/h (1 Bft)
07/10/2011 12:45 15,4 C 66 % 1024,1 hPa 0,0 mm 3,6 km/h (1 Bft) O-SO 247 0 min 0 W/m 9,1 C 15,4 C 9,4 km/h (2 Bft)
07/10/2011 12:50 15,3 C 67 % 1024,0 hPa 0,0 mm 5,0 km/h (1 Bft) N-NE 22 0 min 0 W/m 9,2 C 15,3 C 12,6 km/h (3 Bft)
07/10/2011 12:55 15,5 C 67 % 1023,9 hPa 0,0 mm 10,1 km/h (2 Bft) N-NO 337 0 min 0 W/m 9,4 C 15,5 C 17,3 km/h (3 Bft)
07/10/2011 13:00 15,6 C 66 % 1023,8 hPa 0,0 mm 0,4 km/h (0 Bft) O-NO 292 0 min 0 W/m 9,3 C 15,6 C 3,2 km/h (1 Bft)
07/10/2011 13:05 15,7 C 65 % 1023,8 hPa 0,0 mm 2,5 km/h (1 Bft) O-SO 247 0 min 0 W/m 9,1 C 15,7 C 2,9 km/h (1 Bft)
07/10/2011 13:10 15,6 C 65 % 1023,8 hPa 0,0 mm 3,2 km/h (1 Bft) O-NO 292 0 min 0 W/m 9,0 C 15,6 C 7,6 km/h (2 Bft)
07/10/2011 13:15 15,4 C 65 % 1023,8 hPa 0,0 mm 0,4 km/h (0 Bft) O-SO 247 0 min 0 W/m 8,9 C 15,4 C 3,2 km/h (1 Bft)
07/10/2011 13:20 15,3 C 65 % 1023,9 hPa 0,0 mm 0,7 km/h (0 Bft) N-NO 337 0 min 0 W/m 8,8 C 15,3 C 11,9 km/h (2 Bft)
07/10/2011 13:25 15,3 C 66 % 1023,9 hPa 0,0 mm 2,5 km/h (1 Bft) SO 225 0 min 0 W/m 9,0 C 15,3 C 8,3 km/h (2 Bft)
07/10/2011 13:30 15,1 C 66 % 1023,9 hPa 0,0 mm 5,0 km/h (1 Bft) NO 315 0 min 0 W/m 8,8 C 15,1 C 5,0 km/h (1 Bft)
07/10/2011 13:35 15,3 C 67 % 1023,9 hPa 0,0 mm 5,0 km/h (1 Bft) N 360 0 min 0 W/m 9,2 C 15,3 C 5,0 km/h (1 Bft)
07/10/2011 13:40 15,4 C 66 % 1023,9 hPa 0,0 mm 1,8 km/h (1 Bft) NO 315 0 min 0 W/m 9,1 C 15,4 C 4,7 km/h (1 Bft)
07/10/2011 13:45 15,4 C 65 % 1024,0 hPa 0,0 mm 4,0 km/h (1 Bft) N 360 0 min 0 W/m 8,9 C 15,4 C 11,9 km/h (2 Bft)
07/10/2011 13:50 15,5 C 65 % 1023,9 hPa 0,0 mm 0,4 km/h (0 Bft) N 360 0 min 0 W/m 8,9 C 15,5 C 3,6 km/h (1 Bft)
07/10/2011 13:55 15,6 C 64 % 1023,9 hPa 0,0 mm 4,7 km/h (1 Bft) NO 315 0 min 0 W/m 8,8 C 15,6 C 12,2 km/h (2 Bft)
07/10/2011 14:00 15,8 C 64 % 1023,9 hPa 0,0 mm 0,4 km/h (0 Bft) O 270 0 min 0 W/m 9,0 C 15,8 C 4,3 km/h (1 Bft)
07/10/2011 14:05 16,0 C 64 % 1023,8 hPa 0,0 mm 3,6 km/h (1 Bft) O 270 0 min 0 W/m 9,2 C 16,0 C 7,2 km/h (2 Bft)
07/10/2011 14:10 16,2 C 63 % 1023,8 hPa 0,0 mm 0,7 km/h (0 Bft) NO 315 0 min 0 W/m 9,1 C 16,2 C 2,9 km/h (1 Bft)
07/10/2011 14:15 16,3 C 63 % 1023,8 hPa 0,0 mm 3,6 km/h (1 Bft) O-SO 247 0 min 0 W/m 9,2 C 16,3 C 7,6 km/h (2 Bft)
07/10/2011 14:20 16,4 C 61 % 1023,7 hPa 0,0 mm 2,5 km/h (1 Bft) N-NO 337 0 min 0 W/m 8,9 C 16,4 C 8,3 km/h (2 Bft)
_ Min-Heure 07:50 14:20 00:00 - 11:45 - - - - 07:25 07:50 11:45
Minimum _ 5,8 C 61 % 1020,7 hPa - 0,0 km/h (0 Bft) - - - - 3,9 C 5,8 C 0,0 km/h (0 Bft)
_ Max-Heure 14:20 09:20 11:10 14:20 12:25 - - 14:20 14:20 12:10 14:20 12:55
Maximum _ 16,4 C 90 % 1024,3 hPa 0,0 mm 11,9 km/h
NO (2 Bft)
- - 0 min 0 W/m 9,7 C 16,4 C 17,3 km/h
N-NO (3 Bft)
Moyenne _ 10,4 C 81 % 1022,7 hPa #0,0 mm 1,3 km/h (1 Bft) O-SO - #0 min. 0 W/m 7,1 C 10,4 C 3,1 km/h (1 Bft)
Saint Bonnet de Bellac- Haute Vienne - France